When you browse on this site, cookies collect data to enhance your experience and personalize the content and advertising you see.
Visit our Privacy Policy to learn more. By continuing to use the site, you agree to this use of cookies and data.
EN

Hourly Weather Rakovnik

Today, 5 July, Sunday

Time Temperature Precipitation Wind Pressure Humidity
00:00 +18°C° 0 mm 3 mps 733 mmHg 74%
01:00 +19°C° 0 mm 3 mps 732 mmHg 70%
02:00 +18°C° 0 mm 3 mps 732 mmHg 74%
03:00 +18°C° 0 mm 3 mps 732 mmHg 78%
04:00 +17°C° 0 mm 3 mps 732 mmHg 82%
05:00 +18°C° 0 mm 4 mps 732 mmHg 81%
06:00 +19°C° 0 mm 4 mps 732 mmHg 81%
07:00 +20°C° 0 mm 5 mps 732 mmHg 80%
08:00 +20°C° 0 mm 5 mps 732 mmHg 77%
09:00 +21°C° 0 mm 6 mps 732 mmHg 75%
10:00 +22°C° 0 mm 6 mps 732 mmHg 72%
11:00 +23°C° 0 mm 6 mps 732 mmHg 72%
12:00 +23°C° 0 mm 6 mps 732 mmHg 71%
13:00 +23°C° 0 mm 6 mps 732 mmHg 71%
14:00 +23°C° 0 mm 6 mps 731 mmHg 70%
15:00 +24°C° 0 mm 6 mps 731 mmHg 70%
16:00 +25°C° 0 mm 5 mps 731 mmHg 69%
17:00 +23°C° 0 mm 5 mps 731 mmHg 72%
18:00 +23°C° 0 mm 4 mps 731 mmHg 75%
19:00 +22°C° 0 mm 3 mps 730 mmHg 79%
20:00 +21°C° 0 mm 3 mps 730 mmHg 82%
21:00 +20°C° 0 mm 3 mps 730 mmHg 86%
22:00 +18°C° 0 mm 3 mps 730 mmHg 89%
23:00 +18°C° 0 mm 3 mps 730 mmHg 90%

Tomorrow, 6 July, Monday

Time Temperature Precipitation Wind Pressure Humidity
00:00 +17°C° 0 mm 3 mps 730 mmHg 92%
01:00 +17°C° 0 mm 3 mps 730 mmHg 93%
02:00 +17°C° 0 mm 3 mps 730 mmHg 92%
03:00 +17°C° 0 mm 3 mps 730 mmHg 92%
04:00 +17°C° 0 mm 3 mps 729 mmHg 91%
05:00 +18°C° 0 mm 4 mps 729 mmHg 88%
06:00 +18°C° 0 mm 4 mps 729 mmHg 85%
07:00 +19°C° 0 mm 5 mps 729 mmHg 81%
08:00 +19°C° 0.3 mm 4 mps 730 mmHg 80%
09:00 +19°C° 0.3 mm 4 mps 730 mmHg 79%
10:00 +19°C° 0.3 mm 4 mps 730 mmHg 78%
11:00 +19°C° 0 mm 4 mps 730 mmHg 72%
12:00 +20°C° 0 mm 4 mps 730 mmHg 66%
13:00 +20°C° 0 mm 5 mps 730 mmHg 60%
14:00 +20°C° 0 mm 5 mps 730 mmHg 55%
15:00 +21°C° 0 mm 6 mps 730 mmHg 50%
16:00 +21°C° 0 mm 6 mps 730 mmHg 45%
17:00 +20°C° 0 mm 5 mps 730 mmHg 51%
18:00 +19°C° 0 mm 4 mps 731 mmHg 57%
19:00 +17°C° 0 mm 3 mps 731 mmHg 64%
20:00 +16°C° 0 mm 3 mps 732 mmHg 67%
21:00 +13°C° 0 mm 3 mps 732 mmHg 71%
22:00 +13°C° 0 mm 2 mps 733 mmHg 74%
23:00 +12°C° 0 mm 2 mps 733 mmHg 77%

Day after tomorrow, 7 July, Tuesday

Time Temperature Precipitation Wind Pressure Humidity
00:00 +10°C° 0 mm 2 mps 733 mmHg 81%
01:00 +10°C° 0 mm 2 mps 734 mmHg 84%
02:00 +10°C° 0 mm 2 mps 734 mmHg 85%
03:00 +9°C° 0 mm 3 mps 734 mmHg 86%
04:00 +8°C° 0 mm 4 mps 734 mmHg 87%
05:00 +11°C° 0 mm 4 mps 734 mmHg 82%
06:00 +12°C° 0 mm 4 mps 735 mmHg 77%
07:00 +13°C° 0 mm 4 mps 735 mmHg 72%
08:00 +14°C° 0 mm 4 mps 735 mmHg 69%
09:00 +14°C° 0 mm 4 mps 735 mmHg 66%
10:00 +15°C° 0 mm 4 mps 735 mmHg 63%
11:00 +16°C° 0 mm 3 mps 735 mmHg 61%
12:00 +17°C° 0 mm 3 mps 735 mmHg 58%
13:00 +18°C° 0 mm 2 mps 735 mmHg 56%
14:00 +18°C° 0 mm 2 mps 735 mmHg 55%
15:00 +19°C° 0 mm 1 mps 735 mmHg 53%
16:00 +20°C° 0 mm 1 mps 735 mmHg 52%
17:00 +19°C° 0 mm 1 mps 734 mmHg 57%
18:00 +19°C° 0 mm 1 mps 734 mmHg 62%
19:00 +18°C° 0 mm 1 mps 734 mmHg 67%
20:00 +15°C° 0 mm 1 mps 734 mmHg 72%
21:00 +12°C° 0 mm 0 mps 734 mmHg 76%
22:00 +11°C° 0 mm 0 mps 734 mmHg 81%
23:00 +10°C° 0 mm 0 mps 734 mmHg 81%

8 July, Wednesday

Time Temperature Precipitation Wind Pressure Humidity
00:00 +11°C° 0 mm 1 mps 733 mmHg 82%
01:00 +11°C° 0 mm 1 mps 733 mmHg 82%
02:00 +11°C° 0 mm 1 mps 733 mmHg 83%
03:00 +11°C° 0 mm 1 mps 733 mmHg 84%
04:00 +10°C° 0 mm 1 mps 733 mmHg 85%
05:00 +12°C° 0 mm 2 mps 733 mmHg 80%
06:00 +14°C° 0 mm 2 mps 733 mmHg 76%
07:00 +14°C° 0 mm 3 mps 732 mmHg 71%
08:00 +17°C° 0 mm 3 mps 732 mmHg 66%
09:00 +19°C° 0 mm 4 mps 732 mmHg 61%
10:00 +21°C° 0 mm 4 mps 732 mmHg 55%
11:00 +21°C° 0 mm 5 mps 732 mmHg 54%
12:00 +22°C° 0 mm 5 mps 732 mmHg 52%
13:00 +23°C° 0 mm 5 mps 732 mmHg 51%
14:00 +22°C° 0 mm 5 mps 732 mmHg 56%
15:00 +21°C° 0 mm 4 mps 732 mmHg 61%
16:00 +21°C° 0 mm 3 mps 731 mmHg 67%
17:00 +20°C° 0.1 mm 3 mps 732 mmHg 69%
18:00 +20°C° 0.1 mm 3 mps 732 mmHg 72%
19:00 +19°C° 0.1 mm 2 mps 732 mmHg 74%
20:00 +18°C° 0 mm 2 mps 732 mmHg 77%
21:00 +16°C° 0 mm 2 mps 733 mmHg 80%
22:00 +14°C° 0 mm 2 mps 733 mmHg 83%
23:00 +14°C° 0 mm 2 mps 733 mmHg 86%

9 July, Thursday

Time Temperature Precipitation Wind Pressure Humidity
00:00 +13°C° 0 mm 2 mps 734 mmHg 89%
01:00 +12°C° 0 mm 1 mps 734 mmHg 92%
02:00 +12°C° 0 mm 1 mps 734 mmHg 92%
03:00 +11°C° 0 mm 1 mps 734 mmHg 93%
04:00 +10°C° 0 mm 0 mps 734 mmHg 94%
05:00 +12°C° 0 mm 1 mps 735 mmHg 89%
06:00 +14°C° 0 mm 1 mps 735 mmHg 84%
07:00 +15°C° 0 mm 1 mps 736 mmHg 79%
08:00 +16°C° 0 mm 1 mps 736 mmHg 72%
09:00 +19°C° 0 mm 1 mps 736 mmHg 66%
10:00 +20°C° 0 mm 1 mps 736 mmHg 59%
11:00 +21°C° 0 mm 1 mps 736 mmHg 57%
12:00 +22°C° 0 mm 1 mps 735 mmHg 54%
13:00 +23°C° 0 mm 1 mps 735 mmHg 52%
14:00 +23°C° 0 mm 1 mps 735 mmHg 52%
15:00 +23°C° 0 mm 1 mps 734 mmHg 52%
16:00 +23°C° 0 mm 1 mps 734 mmHg 52%
17:00 +22°C° 0 mm 1 mps 734 mmHg 58%
18:00 +22°C° 0 mm 1 mps 734 mmHg 64%
19:00 +20°C° 0 mm 2 mps 733 mmHg 69%
20:00 +19°C° 0 mm 1 mps 733 mmHg 73%
21:00 +18°C° 0 mm 1 mps 734 mmHg 76%
22:00 +15°C° 0 mm 1 mps 734 mmHg 80%
23:00 +15°C° 0 mm 1 mps 733 mmHg 82%

10 July, Friday

Time Temperature Precipitation Wind Pressure Humidity
00:00 +14°C° 0 mm 1 mps 733 mmHg 83%
01:00 +13°C° 0 mm 0 mps 733 mmHg 85%
02:00 +12°C° 0 mm 0 mps 733 mmHg 87%
03:00 +12°C° 0 mm 0 mps 732 mmHg 89%
04:00 +12°C° 0 mm 0 mps 732 mmHg 90%
05:00 +13°C° 0 mm 0 mps 732 mmHg 86%
06:00 +15°C° 0 mm 0 mps 732 mmHg 82%
07:00 +16°C° 0 mm 0 mps 732 mmHg 78%
08:00 +20°C° 0 mm 1 mps 732 mmHg 72%
09:00 +22°C° 0 mm 1 mps 732 mmHg 66%
10:00 +24°C° 0 mm 1 mps 732 mmHg 60%
11:00 +26°C° 0 mm 2 mps 732 mmHg 57%
12:00 +27°C° 0 mm 2 mps 731 mmHg 54%
13:00 +28°C° 0 mm 2 mps 731 mmHg 51%
14:00 +28°C° 0 mm 2 mps 731 mmHg 50%
15:00 +28°C° 0 mm 2 mps 731 mmHg 50%
16:00 +29°C° 0 mm 2 mps 730 mmHg 50%
17:00 +28°C° 0 mm 2 mps 730 mmHg 55%
18:00 +27°C° 0 mm 2 mps 730 mmHg 60%
19:00 +26°C° 0 mm 1 mps 730 mmHg 65%
20:00 +24°C° 0.1 mm 1 mps 730 mmHg 69%
21:00 +21°C° 0.1 mm 2 mps 731 mmHg 74%
22:00 +20°C° 0.1 mm 2 mps 731 mmHg 78%
23:00 +19°C° 0 mm 2 mps 731 mmHg 82%
Show more